Find Starlink 2257

NORAD ID: 47787 Int'l Des: 2021-018 Owner: SPXS Country: US Constellation: starlink operational
LEOCIRCULAR

当前视图

正在加载3D地球...

About Starlink 2257

Starlink 2257 (NORAD 47787) is a starlink constellation satellite (v1.0) launched Mar 11, 2021 by SPXS of US. It operates in LEO, CIRCULAR orbit with a mass of 260.00 kg.

关于 Starlink 2257

正在加载描述...

即将过境

Passes for default location (London). Set your location on the main map for personalized predictions.

高度历史

Loading altitude history...

两行轨道根数

1 47787U 21018A 26196.74715750 -.00004335 00000-0 -12817-3 0 9994
2 47787 53.1611 9.8662 0001263 265.9671 94.1186 15.31661531296302
Epoch: Jul 15, 2026 • Age: 9 hours

当前状态

高度 480.1 km
远地点 / 近地点 N/A
速度 7.63 km/s
星下点 -31.84°S, 119.08°W
发射日期 Mar 11, 2021
运行时间 5.3 years
类型 internet

技术详情

分类 Payload
质量 260.00 kg
干质量 248.00 kg
总质量 260.00 kg
长度 0.20 m
直径 2.80 m
跨度 9.00 m
形状 Box + pan
制造商 SPXS
平台类型 Starlink
阶段状态 In Orbit
所有者/国家 SPXS/US

Most Searched